AirNav   Pilot Hours Calculator
 
 1060 users online  

NR02 Jordan Field Airport
Mount Gilead, North Carolina, USA

GOING TO MOUNT GILEAD?


FAA INFORMATION EFFECTIVE 25 FEBRUARY 2021

Location

FAA Identifier: NR02
Lat/Long: 35-14-16.0000N 079-59-44.0000W
35-14.266667N 079-59.733333W
35.2377778,-79.9955556
(estimated)
Elevation: 600 ft. / 183 m (estimated)
From city: 1 mile NE of MOUNT GILEAD, NC
Time zone: UTC -5 (UTC -4 during Daylight Saving Time)
Zip code: 27306

Airport Operations

Airport use: Private use. Permission required prior to landing
Activation date: 04/2007
Control tower: no
ARTCC: WASHINGTON CENTER
FSS: JONESBORO FLIGHT SERVICE STATION
Attendance: UNATNDD
Wind indicator: yes
Segmented circle: no

Airport Communications

WX AWOS-3 at VUJ (13 nm NW): 128.175 (704-986-2097)
WX AWOS-3 at AFP (14 nm S): 119.325 (704-695-0623)

Nearby radio navigation aids

VOR radial/distance  VOR name  Freq  Var
SDZr277/20.0SANDHILLS VORTAC111.8003W
CTFr024/37.8CHESTERFIELD VOR/DME108.2003W
LIBr212/39.2LIBERTY VORTAC113.0003W

 
NDB name  Hdg/Dist  Freq  Var  ID
MACKALL303/28.027806WHFF .... ..-. ..-.
BENNETTSVILLE349/39.223008WBES -... . ...

Airport Services

Runway Information

Runway 4/22

Dimensions: 3900 x 70 ft. / 1189 x 21 m
Surface: turf
RUNWAY 4  RUNWAY 22
Traffic pattern: leftleft
Obstructions: 100 ft. trees, 20 ft. from runway100 ft. trees, 20 ft. from runway

Airport Ownership and Management from official FAA records

Ownership: Privately-owned
Owner: JORDAN LUMBER COMPANY
1939 N. C. 109 S.
MOUNT GILEAD, NC 27306
Phone 910-439-6121
Manager: JACK JORDAN
1939 N. C.109 S.
MOUNT GILEAD, NC 27306
Phone (910) 439-8127

Additional Remarks

FOR CD CTC WASHINGTON ARTCC AT 703-771-3587.

Instrument Procedures

There are no published instrument procedures at NR02.

Some nearby airports with instrument procedures:

KVUJ - Stanly County Airport (13 nm NW)
43A - Montgomery County Airport (13 nm NE)
KAFP - Anson County Airport - Jeff Cloud Field (14 nm S)
KRCZ - Richmond County Airport (24 nm SE)
KHBI - Asheboro Regional Airport (25 nm N)
 
Loc | Ops | Rwys | IFR | FBO | Links
Com | Nav | Svcs | Stats | Notes
Area around NR02 (Jordan Field Airport)
 
Road maps at: MapQuest Bing Google
 
Aerial photo
No photo
 
Sectional chart

 
Airport distance calculator
Flying to Jordan Field Airport? Find the distance to fly.

From to NR02

Sunrise and sunset
Times for 07-Mar-2021
 Local
(UTC-5)
 Zulu
(UTC)
Morning civil twilight06:1711:17
Sunrise06:4311:43
Sunset18:1923:19
Evening civil twilight18:4523:45

Current date and time
Zulu (UTC)  07-Mar-2021 21:10:02
Local (UTC-5)  07-Mar-2021 16:10:02
 
METAR
KVUJ 
13nm NW 
072055Z AUTO 36008G15KT 10SM CLR 11/M09 A3036 RMK AO2 T01091095
KAFP 
14nm S 
072055Z AUTO 34015G19KT 10SM CLR 12/M12 A3033 RMK AO2 T01161122
KRCZ 
24nm SE 
072055Z AUTO 30011G17KT 10SM CLR 12/M14 A3032 RMK AO2 T01151140
KHBI 
25nm N 
072055Z AUTO 35005KT 10SM CLR 10/M12 A3034 RMK AO2 T00951122
TAF
KCLT 
47nm W 
071730Z 0718/0824 36010G18KT P6SM FEW080 FM072100 33006KT P6SM SKC FM080300 35003KT P6SM SKC FM081900 26005KT P6SM SKC
KPOB 
48nm E 
071000Z 0710/0816 VRB05KT 9999 SKC QNH3020INS BECMG 0713/0714 02010G15KT 9999 SKC QNH3025INS BECMG 0722/0723 VRB03KT 9999 SKC QNH3030INS BECMG 0813/0814 35010KT 9999 SKC QNH3048INS TX14/0720Z TNM03/0711Z
NOTAMs
Click for the latest NOTAMs
NOTAMs are issued by the DoD/FAA and will open in a separate window not controlled by AirNav.

 

 
 

Would you like to see your business listed on this page?

 If your business provides an interesting product or service to pilots, flight crews, aircraft, or users of the Jordan Field Airport, you should consider listing it here.  To start the listing process, click on the button below
 
Add a business
 

Other Pages about Jordan Field Airport

Update a link
 
Copyright © AirNav, LLC. All rights reserved. Privacy Policy  Contact